Location: Indian Springs
(36.5700°N, 115.6700°W)
Time: 02:43:45
(UTC-07:00)

Amateur Radio Satellites - All Passes

Search period start: 02 April 2015 02:13
Search period end: 03 April 2015 02:13
Location: Indian Springs, 36.5700°N, 115.6700°W

Satellite Date Start Highest point End Downlink Frequencies (MHz)
Time Altitude Azimuth
Oscar 19 02 Apr 02:14:00 02:19:12 81° 101° (E) 02:24:25 437.125/150
STARS 02 Apr 02:16:38 02:20:11 25° 70° (ENE) 02:23:49 437.465
VERMONT LUNAR 02 Apr 02:37:28 02:39:55 19° 147° (SSE) 02:42:25 437.305
AIST 1 02 Apr 02:45:23 02:47:43 15° 88° (E) 02:50:16
SWISSCUBE 02 Apr 02:50:30 02:53:17 15° 269° (W) 02:55:51 437.505
BEESAT 02 Apr 02:52:38 02:55:30 15° 269° (W) 02:58:09 436.000
ISS 02 Apr 03:01:34 03:03:41 16° 26° (NNE) 03:05:50 145.825
Gurwin Techsat 1B 02 Apr 03:01:43 03:06:57 58° 100° (E) 03:12:11 435.225
O/OREOS (USA 219) 02 Apr 03:16:29 03:21:04 77° 109° (ESE) 03:25:41 437.305
ITAMSAT 1 02 Apr 03:28:36 03:33:44 63° 286° (WNW) 03:38:49 435.822/435.867
KKS-1 02 Apr 03:30:26 03:34:17 28° 264° (W) 03:38:04 437.445
AO-7 02 Apr 03:33:57 03:39:45 22° 92° (E) 03:45:56 29.400- 29.500
JAS-2 02 Apr 03:40:08 03:45:17 21° 87° (E) 03:50:24 435.910
SO-50 02 Apr 03:43:45 03:48:30 46° 245° (WSW) 03:53:10 436.795
PHONESAT 2.4 02 Apr 03:51:37 03:54:44 30° 150° (SSE) 03:57:53 2401.200-2431.200
STARS 02 Apr 03:52:58 03:56:36 25° 265° (W) 04:00:10 437.465
Oscar 19 02 Apr 03:56:08 03:57:58 12° 297° (WNW) 03:59:30 437.125/150
MOZHAYETS 4 02 Apr 03:58:02 04:01:56 28° 71° (ENE) 04:05:56
HORYU 2 02 Apr 04:00:59 04:05:23 50° 100° (E) 04:09:46 437.375
VERMONT LUNAR 02 Apr 04:14:00 04:17:21 85° 339° (NNW) 04:20:42 437.305
RS-15 02 Apr 04:16:01 04:27:37 81° 242° (WSW) 04:39:42 29.354- 29.394
AIST 1 02 Apr 04:20:57 04:25:05 39° 282° (WNW) 04:29:13
ISS 02 Apr 04:37:09 04:40:22 62° 224° (SW) 04:43:32 145.825
AUBIESAT-1 02 Apr 04:39:10 04:42:48 31° 66° (ENE) 04:46:44 437.475
Gurwin Techsat 1B 02 Apr 04:43:09 04:46:31 17° 295° (WNW) 04:49:39 435.225
O/OREOS (USA 219) 02 Apr 05:00:03 05:01:10 11° 307° (NW) 05:02:01 437.305
M-CUBED/EXP-1 PRIME 02 Apr 05:06:45 05:10:48 73° 71° (ENE) 05:15:15 437.505
JAS-2 02 Apr 05:23:33 05:31:07 68° 287° (WNW) 05:37:54 435.910
AO-7 02 Apr 05:25:03 05:33:20 72° 290° (WNW) 05:41:34 29.400- 29.500
PHONESAT 2.4 02 Apr 05:29:25 05:32:56 66° 344° (NNW) 05:36:27 2401.200-2431.200
MOZHAYETS 4 02 Apr 05:35:18 05:39:09 25° 266° (W) 05:42:56
HORYU 2 02 Apr 05:39:11 05:41:40 14° 293° (WNW) 05:43:57 437.375
VERMONT LUNAR 02 Apr 05:52:03 05:55:14 40° 357° (N) 05:58:24 437.305
CUBESAT XI-V 02 Apr 05:56:22 06:00:42 39° 73° (ENE) 06:05:05 437.345
GONETS M04 02 Apr 06:01:34 06:10:12 56° 78° (ENE) 06:18:51
AUBIESAT-1 02 Apr 06:14:33 06:17:43 21° 263° (W) 06:20:57 437.475
CUTE-I 02 Apr 06:20:50 06:25:25 30° 96° (E) 06:30:03 437.470
Cubesat XI-IV 02 Apr 06:22:15 06:26:55 31° 96° (E) 06:31:38 437.490
RS-15 02 Apr 06:31:39 06:38:48 17° 258° (WSW) 06:45:05 29.354- 29.394
PRISM 02 Apr 06:34:17 06:38:30 84° 77° (ENE) 06:42:45 437.425
STRAND 1 02 Apr 06:46:39 06:51:47 73° 75° (ENE) 06:56:56 437.568
DANDE 02 Apr 06:48:14 06:51:54 23° 77° (ENE) 06:56:34 436.750
PHONESAT 2.4 02 Apr 07:08:11 07:11:33 41° 1° (N) 07:14:55 2401.200-2431.200
JAS-2 02 Apr 07:11:56 07:14:47 12° 304° (NW) 07:17:05 435.910
CUSAT 1 02 Apr 07:14:27 07:19:16 56° 80° (E) 07:25:41 437.405
AO-7 02 Apr 07:20:38 07:24:54 15° 307° (NW) 07:28:41 29.400- 29.500
VERMONT LUNAR 02 Apr 07:29:54 07:33:11 58° 13° (NNE) 07:36:30 437.305
CUBESAT XI-V 02 Apr 07:35:00 07:38:20 18° 268° (W) 07:41:30 437.345
GONETS M04 02 Apr 07:59:19 08:06:37 29° 275° (W) 08:13:37
CUTE-I 02 Apr 08:00:51 08:05:28 30° 291° (WNW) 08:09:59 437.470
Cubesat XI-IV 02 Apr 08:02:24 08:06:58 29° 291° (WNW) 08:11:25 437.490
GOMX 1 02 Apr 08:07:43 08:08:22 10° 90° (E) 08:09:21 467.674
HO-68 02 Apr 08:27:51 08:33:25 25° 93° (E) 08:39:13 435.675
BEESAT 2 02 Apr 08:29:58 08:33:12 23° 112° (ESE) 08:36:34 435.950
STRAND 1 02 Apr 08:29:58 08:31:37 11° 272° (W) 08:32:53 437.568
DANDE 02 Apr 08:30:44 08:35:07 36° 263° (W) 08:40:43 436.750
PHONESAT 2.4 02 Apr 08:46:36 08:50:08 78° 18° (NNE) 08:53:39 2401.200-2431.200
CUSAT 1 02 Apr 08:58:41 09:02:06 17° 266° (W) 09:05:41 437.405
BEESAT 3 02 Apr 09:00:54 09:04:56 66° 118° (ESE) 09:09:02 437.485
CANX-2 02 Apr 09:05:41 09:09:50 44° 98° (E) 09:13:58 2200.000
VERMONT LUNAR 02 Apr 09:07:43 09:10:47 34° 209° (SSW) 09:13:51 437.305
DOVE 4 02 Apr 09:10:37 09:14:46 38° 98° (E) 09:19:11 437.250
BRITE-PL 02 Apr 09:18:06 09:22:23 73° 283° (WNW) 09:26:56 437.365/2234.400
CUTE 1.7 + AOD 2 02 Apr 09:18:52 09:23:08 58° 100° (E) 09:27:22 437.475
UWE-3 02 Apr 09:26:00 09:27:31 12° 90° (E) 09:29:19 435.000/436.395/437.385
AAUSAT CUBESAT 2 02 Apr 09:26:43 09:30:43 40° 98° (E) 09:34:42 437.432
ANTELSAT 02 Apr 09:38:37 09:41:31 19° 69° (ENE) 09:44:37 437.575/2403.000
CUBEBUG 2 02 Apr 09:38:40 09:42:02 21° 94° (E) 09:45:37 437.445
SEEDS 02 Apr 09:41:32 09:45:51 89° 287° (WNW) 09:50:08 437.485
GOMX 1 02 Apr 09:42:34 09:46:53 61° 285° (WNW) 09:51:29 467.674
POLYITAN 1 02 Apr 09:46:41 09:47:45 11° 66° (ENE) 09:49:04 437.675
CINEMA 3 02 Apr 09:55:03 09:59:33 62° 101° (E) 10:04:15 145.822/145.860
COMPASS 1 02 Apr 09:57:18 10:01:33 72° 284° (WNW) 10:05:46 437.405
UKube-1 02 Apr 09:58:35 10:00:42 14° 91° (E) 10:03:02 .
AIST 2 02 Apr 10:06:26 10:10:41 85° 299° (WNW) 10:15:00 435.215
BEESAT 2 02 Apr 10:07:40 10:11:15 28° 308° (NW) 10:14:50 435.950
DX 1 02 Apr 10:13:42 10:17:04 22° 95° (E) 10:20:31 434.975-435.025
DELFI C3 02 Apr 10:14:22 10:18:22 50° 99° (E) 10:22:20 145.870
HO-68 02 Apr 10:14:33 10:21:34 56° 290° (WNW) 10:28:31 435.675
DUCHIFAT 1 02 Apr 10:17:55 10:21:18 25° 71° (ENE) 10:24:46 145.980
QB50P1 02 Apr 10:18:37 10:22:05 26° 71° (ENE) 10:25:36 145.935-145.965
Oscar 11 02 Apr 10:24:43 10:29:07 89° 102° (ESE) 10:33:28 145.826/435.025
PHONESAT 2.4 02 Apr 10:25:20 10:28:15 24° 212° (SSW) 10:31:07 2401.200-2431.200
UNISAT 6 02 Apr 10:32:55 10:37:11 80° 76° (ENE) 10:41:32 437.425
QB50P2 02 Apr 10:34:31 10:38:27 40° 73° (ENE) 10:42:26 145.880/145.840
BUGSAT 1 02 Apr 10:38:05 10:41:41 30° 72° (ENE) 10:45:19 437.445
TIGRISAT 02 Apr 10:41:04 10:45:19 85° 255° (WSW) 10:49:39 435.000
BEESAT 3 02 Apr 10:41:38 10:43:29 12° 316° (NW) 10:45:11 437.485
CANX-2 02 Apr 10:43:00 10:45:26 14° 292° (WNW) 10:47:39 2200.000
FUNcube-1 02 Apr 10:43:55 10:48:22 75° 101° (ESE) 10:52:54 145.935
DOVE 4 02 Apr 10:49:16 10:52:22 18° 290° (WNW) 10:55:25 437.250
CUTE 1.7 + AOD 2 02 Apr 10:57:09 10:58:36 11° 294° (WNW) 10:59:49 437.475
ZACube-1 02 Apr 10:58:34 11:03:01 73° 284° (WNW) 11:07:32 437.345
CUBEBUG 1 02 Apr 10:59:34 11:01:34 13° 91° (E) 11:03:49 437.445
UWE-3 02 Apr 11:00:02 11:04:26 56° 285° (WNW) 11:08:55 435.000/436.395/437.385
POPSAT HIP 1 02 Apr 11:01:57 11:06:10 86° 79° (E) 11:10:24 437.405
AAUSAT CUBESAT 2 02 Apr 11:03:32 11:06:03 15° 292° (WNW) 11:08:25 437.432
50 SAT 02 Apr 11:09:14 11:13:07 43° 99° (E) 11:17:00 437.505
NANOSAT C BR1 02 Apr 11:10:40 11:14:52 74° 258° (WSW) 11:19:04 145.865
VELOX 1 02 Apr 11:10:57 11:15:08 42° 99° (E) 11:19:20 145.980
HUMSAT D 02 Apr 11:14:12 11:18:30 83° 102° (ESE) 11:22:49 437.325/437.525
ANTELSAT 02 Apr 11:14:15 11:18:07 33° 263° (W) 11:22:01 437.575/2403.000
CUBEBUG 2 02 Apr 11:14:46 11:18:48 32° 287° (WNW) 11:22:52 437.445
AISAT 02 Apr 11:17:31 11:21:49 53° 100° (E) 11:26:09 437.250
POLYITAN 1 02 Apr 11:19:07 11:23:15 56° 260° (W) 11:27:24 437.675
UKube-1 02 Apr 11:33:01 11:37:08 44° 287° (WNW) 11:41:13 .
CINEMA 3 02 Apr 11:34:31 11:36:23 12° 293° (WNW) 11:38:01 145.822/145.860
DX 1 02 Apr 11:49:38 11:53:19 27° 290° (WNW) 11:56:58 434.975-435.025
DELFI C3 02 Apr 11:51:34 11:53:08 12° 293° (WNW) 11:54:29 145.870
DUCHIFAT 1 02 Apr 11:53:42 11:57:07 23° 265° (W) 12:00:25 145.980
QB50P1 02 Apr 11:54:36 11:57:57 22° 266° (W) 12:01:13 145.935-145.965
TISAT 1 02 Apr 12:00:15 12:02:06 13° 91° (E) 12:04:10 437.305
ESTCUBE 1 02 Apr 12:02:04 12:06:36 85° 100° (E) 12:11:06 437.505/2401.250
QB50P2 02 Apr 12:12:15 12:14:36 14° 269° (W) 12:16:46 145.880/145.840
BUGSAT 1 02 Apr 12:14:17 12:17:15 18° 267° (W) 12:20:04 437.445
SPROUT 02 Apr 12:25:38 12:29:29 33° 97° (E) 12:33:23 437.525
CUBEBUG 1 02 Apr 12:34:07 12:38:15 44° 286° (WNW) 12:42:21 437.445
YUBILEINY 02 Apr 12:45:05 12:53:08 44° 89° (E) 13:01:22 435.215
50 SAT 02 Apr 12:45:41 12:47:41 13° 292° (WNW) 12:49:28 437.505
VELOX 1 02 Apr 12:48:42 12:51:24 16° 293° (WNW) 12:53:56 145.980
AISAT 02 Apr 12:55:57 12:58:02 13° 294° (WNW) 12:59:54 437.250
ITAMSAT 1 02 Apr 13:06:53 13:10:08 17° 66° (ENE) 13:13:34 435.822/435.867
JUGNU 02 Apr 13:07:14 13:10:25 15° 176° (S) 13:13:38 437.505
SWISSCUBE 02 Apr 13:14:41 13:17:27 16° 91° (E) 13:20:26 437.505
PCSat 02 Apr 13:16:34 13:21:37 43° 111° (ESE) 13:26:45 145.827
BEESAT 02 Apr 13:16:55 13:19:34 15° 91° (E) 13:22:27 436.000
Oscar 19 02 Apr 13:28:23 13:33:30 90° 100° (E) 13:38:40 437.125/150
O/OREOS (USA 219) 02 Apr 13:29:03 13:33:36 85° 251° (WSW) 13:38:05 437.305
TISAT 1 02 Apr 13:34:10 13:38:11 43° 286° (WNW) 13:42:09 437.305
SPROUT 02 Apr 14:02:20 14:05:22 19° 291° (WNW) 14:08:17 437.525
ITUPSAT 1 02 Apr 14:05:13 14:09:52 50° 100° (E) 14:14:30 437.325
SRMSAT 02 Apr 14:15:27 14:18:21 14° 173° (S) 14:21:17 437.500
Gurwin Techsat 1B 02 Apr 14:20:17 14:25:33 71° 76° (ENE) 14:30:53 435.225
AIST 1 02 Apr 14:30:39 14:34:38 36° 78° (ENE) 14:38:35
AO-7 02 Apr 14:30:41 14:37:02 26° 59° (ENE) 14:43:38 29.400- 29.500
YUBILEINY 02 Apr 14:42:00 14:50:05 38° 287° (WNW) 14:58:03 435.215
ITAMSAT 1 02 Apr 14:44:09 14:49:15 53° 260° (W) 14:54:22 435.822/435.867
SWISSCUBE 02 Apr 14:51:02 14:55:38 46° 287° (WNW) 15:00:09 437.505
BEESAT 02 Apr 14:53:09 14:57:45 48° 287° (WNW) 15:02:19 436.000
JUGNU 02 Apr 14:55:36 14:58:41 14° 186° (S) 15:01:43 437.505
HORYU 2 02 Apr 14:57:10 15:01:08 34° 72° (ENE) 15:05:11 437.375
PCSat 02 Apr 15:00:46 15:05:14 25° 308° (NW) 15:09:38 145.827
KKS-1 02 Apr 15:23:14 15:27:40 66° 101° (E) 15:32:06 437.445
JAS-2 02 Apr 15:31:15 15:37:52 46° 69° (ENE) 15:45:10 435.910
STARS 02 Apr 15:44:13 15:48:38 71° 102° (ESE) 15:53:02 437.465
ITUPSAT 1 02 Apr 15:44:28 15:47:24 16° 294° (WNW) 15:50:07 437.325
SRMSAT 02 Apr 16:03:27 16:06:46 15° 183° (S) 16:10:02 437.500
Gurwin Techsat 1B 02 Apr 16:04:00 16:06:10 12° 271° (W) 16:07:59 435.225
AIST 1 02 Apr 16:09:32 16:12:00 15° 272° (W) 16:14:15
AO-7 02 Apr 16:21:01 16:29:17 67° 256° (WSW) 16:37:33 29.400- 29.500
RS-15 02 Apr 16:29:50 16:35:44 17° 102° (ESE) 16:42:28 29.354- 29.394
HORYU 2 02 Apr 16:34:42 16:37:55 19° 267° (W) 16:41:00 437.375
KKS-1 02 Apr 17:02:36 17:03:50 11° 295° (WNW) 17:04:48 437.445
JAS-2 02 Apr 17:16:51 17:23:06 33° 268° (W) 17:29:44 435.910
BEESAT 3 02 Apr 17:22:53 17:25:56 20° 49° (NE) 17:29:02 437.485
MOZHAYETS 4 02 Apr 17:31:56 17:36:37 87° 286° (WNW) 17:41:14
CUTE-I 02 Apr 17:40:12 17:45:07 40° 71° (ENE) 17:50:06 437.470
Cubesat XI-IV 02 Apr 17:41:45 17:46:45 41° 71° (ENE) 17:51:48 437.490
SRMSAT 02 Apr 17:54:20 17:55:09 10° 193° (SSW) 17:55:52 437.500
SO-50 02 Apr 17:55:27 18:00:04 78° 301° (WNW) 18:04:50 436.795
AUBIESAT-1 02 Apr 17:57:06 18:01:34 39° 101° (ESE) 18:05:51 437.475
CUBESAT XI-V 02 Apr 17:57:57 17:59:14 11° 89° (E) 18:00:50 437.345
PRISM 02 Apr 18:21:03 18:23:08 14° 91° (E) 18:25:25 437.425
M-CUBED/EXP-1 PRIME 02 Apr 18:25:28 18:30:21 90° 288° (WNW) 18:34:59 437.505
BEESAT 2 02 Apr 18:28:43 18:32:52 85° 60° (ENE) 18:36:56 435.950
AIST 2 02 Apr 18:30:55 18:34:40 30° 52° (NE) 18:38:23 435.215
RS-15 02 Apr 18:35:51 18:46:45 87° 117° (ESE) 18:57:51 29.354- 29.394
HO-68 02 Apr 18:56:16 18:59:53 15° 58° (ENE) 19:03:54 435.675
GONETS M04 02 Apr 18:59:03 19:07:38 69° 94° (E) 19:16:20
STRAND 1 02 Apr 19:00:13 19:04:36 29° 96° (E) 19:09:04 437.568
BEESAT 3 02 Apr 19:00:21 19:04:05 33° 246° (WSW) 19:07:43 437.485
CUTE-I 02 Apr 19:21:06 19:25:22 23° 266° (W) 19:29:29 437.470
Cubesat XI-IV 02 Apr 19:22:53 19:27:03 22° 267° (W) 19:31:04 437.490
AUBIESAT-1 02 Apr 19:32:26 19:36:06 21° 297° (WNW) 19:39:32 437.475
CUBESAT XI-V 02 Apr 19:32:37 19:37:11 59° 285° (WNW) 19:41:41 437.345
ISS 02 Apr 19:39:49 19:41:17 13° 129° (SE) 19:42:52 145.825
SO-50 02 Apr 19:40:08 19:41:31 11° 321° (NW) 19:42:43 436.795
PRISM 02 Apr 19:54:58 19:58:52 39° 287° (WNW) 20:02:42 437.425
CANX-2 02 Apr 19:56:51 20:00:13 24° 71° (ENE) 20:03:41 2200.000
DANDE 02 Apr 20:01:38 20:03:35 17° 96° (E) 20:05:29 436.750
M-CUBED/EXP-1 PRIME 02 Apr 20:03:43 20:04:31 10° 302° (WNW) 20:05:01 437.505
CUTE 1.7 + AOD 2 02 Apr 20:09:41 20:13:21 30° 72° (ENE) 20:17:07 437.475
AIST 2 02 Apr 20:09:47 20:13:08 22° 248° (WSW) 20:16:20 435.215
DOVE 4 02 Apr 20:14:50 20:18:25 27° 72° (ENE) 20:21:59 437.250
AAUSAT CUBESAT 2 02 Apr 20:16:01 20:19:05 21° 70° (ENE) 20:22:16 437.432
CUSAT 1 02 Apr 20:23:58 20:26:40 72° 98° (E) 20:29:15 437.405
BRITE-PL 02 Apr 20:26:44 20:31:22 83° 257° (WSW) 20:35:43 437.365/2234.400
SEEDS 02 Apr 20:31:14 20:35:14 44° 74° (ENE) 20:39:18 437.485
CUBEBUG 2 02 Apr 20:36:44 20:38:18 12° 67° (ENE) 20:40:06 437.445
STRAND 1 02 Apr 20:39:24 20:43:46 29° 291° (WNW) 20:48:02 437.568
HO-68 02 Apr 20:39:34 20:46:44 86° 74° (ENE) 20:53:58 435.675
COMPASS 1 02 Apr 20:46:03 20:50:08 54° 75° (ENE) 20:54:17 437.405
GOMX 1 02 Apr 20:48:39 20:53:04 74° 259° (WSW) 20:57:18 467.674
RS-15 02 Apr 20:51:37 21:00:46 28° 324° (NW) 21:09:50 29.354- 29.394
CINEMA 3 02 Apr 20:55:08 20:59:00 39° 74° (ENE) 21:02:53 145.822/145.860
GONETS M04 02 Apr 20:58:41 21:05:24 23° 294° (WNW) 21:11:46
DELFI C3 02 Apr 21:00:20 21:03:30 23° 71° (ENE) 21:06:46 145.870
DX 1 02 Apr 21:08:01 21:10:30 16° 67° (ENE) 21:13:10 434.975-435.025
ISS 02 Apr 21:14:12 21:17:23 52° 322° (NW) 21:20:35 145.825
Oscar 11 02 Apr 21:17:00 21:21:09 49° 74° (ENE) 21:25:22 145.826/435.025
CANX-2 02 Apr 21:32:34 21:36:05 25° 266° (W) 21:39:34 2200.000
FUNcube-1 02 Apr 21:37:44 21:41:35 40° 74° (ENE) 21:45:31 145.935
CUTE 1.7 + AOD 2 02 Apr 21:46:14 21:49:22 19° 267° (W) 21:52:23 437.475
AAUSAT CUBESAT 2 02 Apr 21:50:57 21:54:35 28° 265° (W) 21:58:11 437.432
ZACube-1 02 Apr 21:52:19 21:56:24 63° 76° (ENE) 22:00:33 437.345
DOVE 4 02 Apr 21:53:01 21:56:15 20° 266° (W) 21:59:19 437.250
50 SAT 02 Apr 21:53:51 21:56:32 19° 70° (ENE) 21:59:22 437.505
UWE-3 02 Apr 21:54:54 21:59:02 87° 78° (ENE) 22:03:13 435.000/436.395/437.385
HUMSAT D 02 Apr 22:03:56 22:07:45 40° 74° (ENE) 22:11:38 437.325/437.525
VELOX 1 02 Apr 22:06:34 22:10:21 29° 71° (ENE) 22:14:12 145.980
PCSat 02 Apr 22:07:18 22:11:26 22° 50° (NE) 22:15:41 145.827
SEEDS 02 Apr 22:09:19 22:11:22 13° 270° (W) 22:13:10 437.485
CUBEBUG 2 02 Apr 22:10:38 22:14:39 47° 261° (W) 22:18:41 437.445
AISAT 02 Apr 22:13:12 22:17:13 35° 72° (ENE) 22:21:17 437.250
UKube-1 02 Apr 22:25:06 22:29:25 72° 258° (WSW) 22:33:46 .
COMPASS 1 02 Apr 22:25:32 22:26:16 10° 271° (W) 22:26:42 437.405
UNISAT 6 02 Apr 22:27:53 22:31:21 21° 94° (E) 22:34:59 437.425
HO-68 02 Apr 22:31:34 22:35:27 14° 272° (W) 22:38:49 435.675
CINEMA 3 02 Apr 22:34:14 22:36:28 14° 269° (W) 22:38:29 145.822/145.860
DELFI C3 02 Apr 22:35:15 22:38:36 24° 265° (W) 22:41:53 145.870
TIGRISAT 02 Apr 22:35:31 22:39:16 25° 95° (E) 22:43:10 435.000
DX 1 02 Apr 22:42:19 22:46:27 42° 261° (W) 22:50:36 434.975-435.025
POPSAT HIP 1 02 Apr 22:50:51 22:53:31 17° 92° (E) 22:56:22 437.405
ISS 02 Apr 22:53:43 22:54:26 10° 340° (NNW) 22:55:04 145.825
Oscar 11 02 Apr 22:55:50 22:57:42 12° 270° (W) 22:59:19 145.826/435.025
NANOSAT C BR1 02 Apr 22:58:54 23:02:04 21° 94° (E) 23:05:20 145.865
ESTCUBE 1 02 Apr 22:59:09 23:03:36 57° 74° (ENE) 23:08:05 437.505/2401.250
YUBILEINY 02 Apr 22:59:31 23:04:53 18° 63° (ENE) 23:10:43 435.215
POLYITAN 1 02 Apr 23:07:26 23:11:02 27° 96° (E) 23:14:43 437.675
ANTELSAT 02 Apr 23:07:52 23:12:28 59° 101° (E) 23:17:07 437.575/2403.000
RS-15 02 Apr 23:13:29 23:18:42 14° 359° (N) 23:23:58 29.354- 29.394
FUNcube-1 02 Apr 23:16:03 23:18:12 13° 269° (W) 23:20:10 145.935
SPROUT 02 Apr 23:18:14 23:21:16 20° 70° (ENE) 23:24:26 437.525
CUBEBUG 1 02 Apr 23:27:25 23:31:49 76° 257° (WSW) 23:36:13 437.445
50 SAT 02 Apr 23:27:57 23:31:18 27° 264° (W) 23:34:38 437.505
DUCHIFAT 1 02 Apr 23:39:58 23:44:10 65° 101° (E) 23:48:22 145.980
QB50P1 02 Apr 23:41:06 23:45:20 69° 101° (E) 23:49:34 145.935-145.965
HUMSAT D 02 Apr 23:41:39 23:43:46 13° 269° (W) 23:45:43 437.325/437.525
VELOX 1 02 Apr 23:43:26 23:46:57 22° 266° (W) 23:50:21 145.980
PCSat 02 Apr 23:49:56 23:55:10 49° 248° (WSW) 00:00:21 145.827
AISAT 02 Apr 23:50:52 23:53:58 18° 267° (W) 23:56:55 437.250
BUGSAT 1 02 Apr 23:57:34 00:01:35 75° 100° (E) 00:05:38 437.445
QB50P2 02 Apr 23:57:46 00:02:01 73° 283° (WNW) 00:06:15 145.880/145.840
UNISAT 6 03 Apr 00:04:01 00:08:13 34° 288° (WNW) 00:12:24 437.425
TIGRISAT 03 Apr 00:12:01 00:16:01 29° 289° (WNW) 00:19:59 435.000
SWISSCUBE 03 Apr 00:19:37 00:22:12 15° 66° (ENE) 00:25:00 437.505
BEESAT 03 Apr 00:21:48 00:24:15 14° 66° (ENE) 00:26:56 436.000
TISAT 1 03 Apr 00:23:37 00:27:50 84° 257° (WSW) 00:32:03 437.305
POPSAT HIP 1 03 Apr 00:25:41 00:29:34 34° 287° (WNW) 00:33:24 437.405
NANOSAT C BR1 03 Apr 00:34:18 00:37:57 28° 289° (WNW) 00:41:32 145.865
ESTCUBE 1 03 Apr 00:39:13 00:40:56 12° 271° (W) 00:42:19 437.505/2401.250
POLYITAN 1 03 Apr 00:43:31 00:46:51 22° 290° (WNW) 00:50:06 437.675
ANTELSAT 03 Apr 00:46:34 00:48:50 13° 294° (WNW) 00:50:52 437.575/2403.000
SPROUT 03 Apr 00:53:22 00:57:12 31° 264° (W) 01:00:59 437.525
YUBILEINY 03 Apr 00:54:11 01:03:02 85° 265° (W) 01:11:47 435.215
ITUPSAT 1 03 Apr 01:09:37 01:14:10 44° 72° (ENE) 01:18:46 437.325
RS-15 03 Apr 01:28:07 01:36:57 26° 33° (NNE) 01:46:27 29.354- 29.394
Oscar 19 03 Apr 01:42:38 01:47:27 39° 98° (E) 01:52:18 437.125/150
VERMONT LUNAR 03 Apr 01:49:39 01:51:18 13° 144° (SE) 01:53:03 437.305
SWISSCUBE 03 Apr 01:54:58 01:59:40 54° 260° (W) 02:04:23 437.505
BEESAT 03 Apr 01:56:59 02:01:41 56° 260° (W) 02:06:25 436.000
O/OREOS (USA 219) 03 Apr 02:01:34 02:04:05 15° 101° (E) 02:06:48 437.305
ISS 03 Apr 02:08:56 02:09:51 11° 20° (NNE) 02:10:51 145.825
